Hourly Weather Roundup
Issued by NWS Central Illinois

Home | Current Version | Previous Version | Text Only | Print | Product List | Glossary On
Versions: 1 2 3 4 5 6 7 8 9 10 11 12 13 14 15 16 17 18 19 20 21 22 23 24 25 26 27 28 29 30 31 32 33 34 35 36 37 38 39 40 41 42 43 44 45 46 47 48 49 50
000
NZUS43 KILX 241110
HWRILX

AREA WEATHER ROUNDUP
NATIONAL WEATHER SERVICE, LINCOLN IL
500 AM CST FRI FEB 24 2017


CITY           SKY/WX    TMP DP  RH WIND       PRES   REMARKS
BLOOMINGTON    LGT RAIN  57  55  94 S28       29.43F
CHAMPAIGN      CLOUDY    60  55  83 S22G32    29.51R
DECATUR        MOCLDY    60  55  83 SE14      29.45F
EFFINGHAM      PTCLDY    60  57  91 SE10      29.55R
FLORA          CLEAR     62  57  85 S12       29.55S
GALESBURG      MOCLDY    44  44 100 N9        29.41R FOG
JACKSONVILLE   CLEAR     59  54  82 S13       29.40F
LACON          CLOUDY    46  46 100 NW6       29.41F FOG
LAWRENCEVILLE  CLEAR     59  55  87 S15       29.58F
LITCHFIELD     MOCLDY    59  56  89 S15G21    29.47F
$$


CITY           SKY/WX    TMP DP  RH WIND       PRES   REMARKS
LINCOLN        CLOUDY    60  57  89 S18G25    29.42F
MACOMB         CLOUDY    56  55  96 S9        29.39S
MATTOON        PTCLDY    60  56  86 S12       29.54R
MT CARMEL AP   CLEAR     60  55  82 S15       29.58F
OLNEY-NOBLE AP CLEAR     59  59 100 S14       29.56S
PARIS          PTCLDY    60  56  87 S22       29.55R
PEORIA         CLOUDY    58  54  86 S12       29.38F
PONTIAC        MOCLDY    58  56  95 S17       29.48R
RANTOUL        CLOUDY    61  57  88 S17       29.50S
SPRINGFIELD    MOCLDY    61  55  81 S21G29    29.43F
TAYLORVILLE    CLOUDY    59  56  89 S15G22    29.48F
$$

...REGIONAL REPORTS...


CITY           SKY/WX    TMP DP  RH WIND       PRES   REMARKS
CHICAGO O`HARE CLOUDY    40  38  93 N13       29.51F WCI  32
KANKAKEE       PTCLDY    58  55  88 S15       29.48F
MOLINE         CLOUDY    42  37  82 NE12      29.45R
MOUNT STERLING CLOUDY    59  53  83 S12       29.38S
MOUNT VERNON   CLEAR     63  56  78 SW18      29.55R
PITTSFIELD     CLOUDY    59  55  86 S10       29.41S
QUINCY         CLOUDY    61  55  81 S10       29.37S
ROCKFORD       LGT RAIN  38  35  89 NE15      29.53F WCI  29
$$


CITY           SKY/WX    TMP DP  RH WIND       PRES   REMARKS
BURLINGTON     CLOUDY    42  42 100 NE12      29.39F FOG
CEDAR RAPIDS   LGT RAIN  34  34 100 NE15G25   29.47F FOG     WCI  24
DES MOINES     DRIZZLE   36  32  85 NE22G30   29.50F WCI  25
KIRKSVILLE     FOG       43  43 100 N10       29.43R VSB 1/4
OTTUMWA        CLOUDY    37  37 100 NE15G23   29.44R FOG     WCI  28
ST LOUIS       CLEAR     65  53  65 S9        29.45F
$$


CITY           SKY/WX    TMP DP  RH WIND       PRES   REMARKS
TERRE HAUTE    PTCLDY    62  54  74 S18       29.57S
EVANSVILLE     PTCLDY    63  55  75 S12       29.64R
INDIANAPOLIS   CLOUDY    57  52  83 S8        29.61R
LAFAYETTE      MOCLDY    59  55  87 S8        29.54S
MADISON        FRZ RAIN  33  30  88 NE18G24   29.59S FOG     WCI  22
MILWAUKEE      TSTM      37  34  89 NE21G26   29.58F FOG     WCI  26
$$





USA.gov is the U.S. government's official web portal to all federal, state and local government web resources and services.